Time,TemperatureF,DewpointF,PressureIn,WindDirection,WindDirectionDegrees,WindSpeedMPH,WindSpeedGustMPH,Humidity,HourlyPrecipIn,Conditions,Clouds,dailyrainin,SoftwareType,DateUTC
2013-01-20 00:03:00,46.0,39.0,30.09,SSW,210,3.0,5.0,76,0.00,,,0.00,weatherlink.com 1.10,2013-01-20 06:03:00,
2013-01-20 00:18:00,45.8,39.0,30.09,SW,229,2.0,5.0,77,0.00,,,0.00,weatherlink.com 1.10,2013-01-20 06:18:00,
2013-01-20 00:33:00,45.1,39.0,30.10,SSW,210,1.0,3.0,78,0.00,,,0.00,weatherlink.com 1.10,2013-01-20 06:33:00,
2013-01-20 00:48:00,44.7,38.0,30.10,WSW,239,1.0,5.0,78,0.00,,,0.00,weatherlink.com 1.10,2013-01-20 06:48:00,
2013-01-20 01:03:00,44.0,38.0,30.11,WSW,239,0.0,3.0,79,0.00,,,0.00,weatherlink.com 1.10,2013-01-20 07:03:00,
2013-01-20 01:18:00,44.2,38.0,30.12,WSW,243,4.0,5.0,79,0.00,,,0.00,weatherlink.com 1.10,2013-01-20 07:18:00,
2013-01-20 01:34:00,44.0,38.0,30.12,WSW,243,1.0,4.0,79,0.00,,,0.00,weatherlink.com 1.10,2013-01-20 07:34:00,
2013-01-20 01:48:00,44.2,37.0,30.12,WSW,246,2.0,5.0,75,0.00,,,0.00,weatherlink.com 1.10,2013-01-20 07:48:00,
2013-01-20 02:03:00,44.2,36.0,30.13,WSW,247,0.0,3.0,74,0.00,,,0.00,weatherlink.com 1.10,2013-01-20 08:03:00,
2013-01-20 02:19:00,43.5,36.0,30.14,WSW,248,0.0,3.0,74,0.00,,,0.00,weatherlink.com 1.10,2013-01-20 08:19:00,
2013-01-20 02:34:00,44.4,35.0,30.14,West,280,1.0,6.0,70,0.00,,,0.00,weatherlink.com 1.10,2013-01-20 08:34:00,
2013-01-20 02:49:00,45.0,35.0,30.15,NW,320,1.0,8.0,67,0.00,,,0.00,weatherlink.com 1.10,2013-01-20 08:49:00,
2013-01-20 03:04:00,45.0,34.0,30.16,NW,312,1.0,7.0,66,0.00,,,0.00,weatherlink.com 1.10,2013-01-20 09:04:00,
2013-01-20 03:19:00,44.9,34.0,30.16,NW,309,5.0,10.0,66,0.00,,,0.00,weatherlink.com 1.10,2013-01-20 09:19:00,
2013-01-20 03:34:00,44.5,33.0,30.17,NW,312,5.0,9.0,65,0.00,,,0.00,weatherlink.com 1.10,2013-01-20 09:34:00,
2013-01-20 03:49:00,43.6,32.0,30.17,West,275,6.0,7.0,65,0.00,,,0.00,weatherlink.com 1.10,2013-01-20 09:49:00,
2013-01-20 04:04:00,42.9,32.0,30.17,NW,306,2.0,7.0,66,0.00,,,0.00,weatherlink.com 1.10,2013-01-20 10:04:00,
2013-01-20 04:19:00,42.4,32.0,30.17,NW,318,3.0,8.0,67,0.00,,,0.00,weatherlink.com 1.10,2013-01-20 10:19:00,
2013-01-20 04:34:00,42.3,30.0,30.18,NNW,329,5.0,15.0,62,0.00,,,0.00,weatherlink.com 1.10,2013-01-20 10:34:00,
2013-01-20 04:49:00,41.8,27.0,30.18,WNW,302,7.0,11.0,57,0.00,,,0.00,weatherlink.com 1.10,2013-01-20 10:49:00,
2013-01-20 05:04:00,41.5,26.0,30.20,NW,304,6.0,12.0,55,0.00,,,0.00,weatherlink.com 1.10,2013-01-20 11:04:00,
2013-01-20 05:19:00,40.9,26.0,30.20,WNW,300,3.0,9.0,55,0.00,,,0.00,weatherlink.com 1.10,2013-01-20 11:19:00,
2013-01-20 05:34:00,40.4,26.0,30.21,NW,312,5.0,12.0,56,0.00,,,0.00,weatherlink.com 1.10,2013-01-20 11:34:00,
2013-01-20 05:49:00,39.7,26.0,30.22,NNW,344,5.0,7.0,59,0.00,,,0.00,weatherlink.com 1.10,2013-01-20 11:49:00,
2013-01-20 06:04:00,38.7,27.0,30.23,NNW,345,5.0,14.0,62,0.00,,,0.00,weatherlink.com 1.10,2013-01-20 12:04:00,
2013-01-20 06:19:00,38.0,27.0,30.23,North,4,9.0,13.0,65,0.00,,,0.00,weatherlink.com 1.10,2013-01-20 12:19:00,
2013-01-20 06:34:00,37.3,27.0,30.24,NNW,339,4.0,7.0,67,0.00,,,0.00,weatherlink.com 1.10,2013-01-20 12:34:00,
2013-01-20 06:49:00,36.2,28.0,30.25,NNW,339,10.0,15.0,73,0.00,,,0.00,weatherlink.com 1.10,2013-01-20 12:49:00,
2013-01-20 07:04:00,34.5,28.0,30.26,North,354,12.0,17.0,77,0.00,,,0.00,weatherlink.com 1.10,2013-01-20 13:04:00,
2013-01-20 07:20:00,33.4,27.0,30.27,North,350,6.0,14.0,78,0.00,,,0.00,weatherlink.com 1.10,2013-01-20 13:20:00,
2013-01-20 07:35:00,33.0,27.0,30.27,North,4,5.0,12.0,77,0.00,,,0.00,weatherlink.com 1.10,2013-01-20 13:35:00,
2013-01-20 07:50:00,32.8,25.0,30.29,NNW,332,10.0,15.0,74,0.00,,,0.00,weatherlink.com 1.10,2013-01-20 13:50:00,
2013-01-20 08:05:00,32.9,25.0,30.29,North,354,6.0,12.0,73,0.00,,,0.00,weatherlink.com 1.10,2013-01-20 14:05:00,
2013-01-20 08:20:00,33.0,24.0,30.30,North,359,9.0,12.0,69,0.00,,,0.00,weatherlink.com 1.10,2013-01-20 14:20:00,
2013-01-20 08:35:00,33.1,21.0,30.30,NNW,341,8.0,14.0,62,0.00,,,0.00,weatherlink.com 1.10,2013-01-20 14:35:00,
2013-01-20 08:50:00,33.1,20.0,30.30,NNW,346,9.0,14.0,58,0.00,,,0.00,weatherlink.com 1.10,2013-01-20 14:50:00,
2013-01-20 09:05:00,33.4,20.0,30.30,North,354,6.0,12.0,58,0.00,,,0.00,weatherlink.com 1.10,2013-01-20 15:05:00,
2013-01-20 09:20:00,33.6,19.0,30.31,WNW,299,8.0,13.0,55,0.00,,,0.00,weatherlink.com 1.10,2013-01-20 15:20:00,
2013-01-20 09:35:00,33.4,18.0,30.31,NW,323,6.0,10.0,53,0.00,,,0.00,weatherlink.com 1.10,2013-01-20 15:35:00,
2013-01-20 09:50:00,33.7,16.0,30.32,North,4,9.0,12.0,48,0.00,,,0.00,weatherlink.com 1.10,2013-01-20 15:50:00,
2013-01-20 10:05:00,33.9,16.0,30.32,North,349,11.0,12.0,49,0.00,,,0.00,weatherlink.com 1.10,2013-01-20 16:05:00,
2013-01-20 10:20:00,33.8,16.0,30.31,NNE,12,4.0,11.0,49,0.00,,,0.00,weatherlink.com 1.10,2013-01-20 16:20:00,
2013-01-20 10:35:00,33.9,18.0,30.30,North,349,6.0,9.0,52,0.00,,,0.00,weatherlink.com 1.10,2013-01-20 16:35:00,
2013-01-20 10:50:00,34.4,18.0,30.30,NNE,33,8.0,10.0,52,0.00,,,0.00,weatherlink.com 1.10,2013-01-20 16:50:00,
2013-01-20 11:05:00,34.6,18.0,30.30,ESE,108,0.0,7.0,51,0.00,,,0.00,weatherlink.com 1.10,2013-01-20 17:05:00,
2013-01-20 11:20:00,35.1,18.0,30.30,WNW,295,2.0,10.0,50,0.00,,,0.00,weatherlink.com 1.10,2013-01-20 17:20:00,
2013-01-20 11:35:00,35.9,18.0,30.29,NNE,29,3.0,8.0,48,0.00,,,0.00,weatherlink.com 1.10,2013-01-20 17:35:00,
2013-01-20 11:50:00,35.7,18.0,30.28,NNE,31,4.0,9.0,48,0.00,,,0.00,weatherlink.com 1.10,2013-01-20 17:50:00,
2013-01-20 12:05:00,35.9,17.0,30.27,NNW,347,2.0,9.0,47,0.00,,,0.00,weatherlink.com 1.10,2013-01-20 18:05:00,
2013-01-20 12:21:00,36.1,17.0,30.26,North,4,7.0,9.0,47,0.00,,,0.00,weatherlink.com 1.10,2013-01-20 18:21:00,
2013-01-20 12:35:00,36.2,18.0,30.25,NW,315,5.0,10.0,47,0.00,,,0.00,weatherlink.com 1.10,2013-01-20 18:35:00,
2013-01-20 12:50:00,36.5,18.0,30.25,North,359,8.0,8.0,48,0.00,,,0.00,weatherlink.com 1.10,2013-01-20 18:50:00,
2013-01-20 13:05:00,36.7,18.0,30.25,NE,50,4.0,8.0,47,0.00,,,0.00,weatherlink.com 1.10,2013-01-20 19:05:00,
2013-01-20 13:20:00,37.0,19.0,30.23,NNE,19,7.0,11.0,48,0.00,,,0.00,weatherlink.com 1.10,2013-01-20 19:20:00,
2013-01-20 13:35:00,37.4,18.0,30.23,NNW,342,3.0,7.0,45,0.00,,,0.00,weatherlink.com 1.10,2013-01-20 19:35:00,
2013-01-20 13:50:00,38.0,17.0,30.23,WNW,282,2.0,7.0,43,0.00,,,0.00,weatherlink.com 1.10,2013-01-20 19:50:00,
2013-01-20 14:05:00,37.8,18.0,30.24,WNW,291,6.0,9.0,44,0.00,,,0.00,weatherlink.com 1.10,2013-01-20 20:05:00,
2013-01-20 14:20:00,38.0,18.0,30.24,North,349,6.0,10.0,44,0.00,,,0.00,weatherlink.com 1.10,2013-01-20 20:20:00,
2013-01-20 14:35:00,38.0,17.0,30.25,NW,324,5.0,10.0,42,0.00,,,0.00,weatherlink.com 1.10,2013-01-20 20:35:00,
2013-01-20 14:50:00,38.5,17.0,30.25,NW,315,8.0,9.0,42,0.00,,,0.00,weatherlink.com 1.10,2013-01-20 20:50:00,
2013-01-20 15:05:00,38.8,17.0,30.25,North,4,8.0,12.0,42,0.00,,,0.00,weatherlink.com 1.10,2013-01-20 21:05:00,
2013-01-20 15:20:00,38.8,19.0,30.26,NNW,331,7.0,11.0,46,0.00,,,0.00,weatherlink.com 1.10,2013-01-20 21:20:00,
2013-01-20 15:35:00,38.8,19.0,30.26,NNE,17,9.0,10.0,45,0.00,,,0.00,weatherlink.com 1.10,2013-01-20 21:35:00,
2013-01-20 15:50:00,38.4,18.0,30.25,NNW,339,6.0,11.0,43,0.00,,,0.00,weatherlink.com 1.10,2013-01-20 21:50:00,
2013-01-20 16:05:00,38.3,19.0,30.24,NW,324,5.0,10.0,45,0.00,,,0.00,weatherlink.com 1.10,2013-01-20 22:05:00,
2013-01-20 16:20:00,38.2,17.0,30.24,North,8,6.0,8.0,43,0.00,,,0.00,weatherlink.com 1.10,2013-01-20 22:20:00,
2013-01-20 16:35:00,37.7,18.0,30.25,NNW,333,5.0,7.0,45,0.00,,,0.00,weatherlink.com 1.10,2013-01-20 22:35:00,
2013-01-20 16:50:00,36.9,19.0,30.24,North,4,2.0,7.0,48,0.00,,,0.00,weatherlink.com 1.10,2013-01-20 22:50:00,
2013-01-20 17:05:00,36.4,19.0,30.25,North,4,3.0,7.0,49,0.00,,,0.00,weatherlink.com 1.10,2013-01-20 23:05:00,
2013-01-20 17:20:00,35.3,19.0,30.25,NNE,33,5.0,9.0,52,0.00,,,0.00,weatherlink.com 1.10,2013-01-20 23:20:00,
2013-01-20 17:35:00,34.7,19.0,30.26,NNE,23,2.0,7.0,53,0.00,,,0.00,weatherlink.com 1.10,2013-01-20 23:35:00,
2013-01-20 17:50:00,34.3,20.0,30.26,NNE,21,3.0,4.0,55,0.00,,,0.00,weatherlink.com 1.10,2013-01-20 23:50:00,
2013-01-20 18:05:00,33.9,20.0,30.25,NNE,21,0.0,4.0,56,0.00,,,0.00,weatherlink.com 1.10,2013-01-21 00:05:00,
2013-01-20 18:20:00,33.4,19.0,30.26,NNE,21,0.0,1.0,57,0.00,,,0.00,weatherlink.com 1.10,2013-01-21 00:20:00,
2013-01-20 18:35:00,32.9,19.0,30.25,NNE,21,2.0,3.0,58,0.00,,,0.00,weatherlink.com 1.10,2013-01-21 00:35:00,
2013-01-20 18:50:00,32.5,20.0,30.25,NNW,339,6.0,8.0,60,0.00,,,0.00,weatherlink.com 1.10,2013-01-21 00:50:00,
2013-01-20 19:05:00,32.3,20.0,30.25,North,359,6.0,6.0,61,0.00,,,0.00,weatherlink.com 1.10,2013-01-21 01:05:00,
2013-01-20 19:20:00,32.1,20.0,30.25,NNE,16,6.0,7.0,62,0.00,,,0.00,weatherlink.com 1.10,2013-01-21 01:20:00,
2013-01-20 19:35:00,31.6,20.0,30.25,NNE,27,1.0,4.0,63,0.00,,,0.00,weatherlink.com 1.10,2013-01-21 01:35:00,
2013-01-20 19:50:00,31.2,21.0,30.25,NNE,21,2.0,4.0,65,0.00,,,0.00,weatherlink.com 1.10,2013-01-21 01:50:00,
2013-01-20 20:05:00,30.6,21.0,30.25,NNE,16,2.0,6.0,68,0.00,,,0.00,weatherlink.com 1.10,2013-01-21 02:05:00,
2013-01-20 20:20:00,30.2,21.0,30.25,North,4,2.0,5.0,69,0.00,,,0.00,weatherlink.com 1.10,2013-01-21 02:20:00,
2013-01-20 20:35:00,29.8,21.0,30.25,North,4,2.0,4.0,71,0.00,,,0.00,weatherlink.com 1.10,2013-01-21 02:35:00,
2013-01-20 20:50:00,29.6,21.0,30.25,NNW,347,5.0,8.0,69,0.00,,,0.00,weatherlink.com 1.10,2013-01-21 02:50:00,
2013-01-20 21:05:00,29.5,20.0,30.25,North,4,2.0,9.0,67,0.00,,,0.00,weatherlink.com 1.10,2013-01-21 03:05:00,
2013-01-20 21:20:00,29.2,20.0,30.26,North,349,4.0,6.0,69,0.00,,,0.00,weatherlink.com 1.10,2013-01-21 03:20:00,
2013-01-20 21:36:00,28.8,20.0,30.26,NNW,340,4.0,7.0,70,0.00,,,0.00,weatherlink.com 1.10,2013-01-21 03:36:00,
2013-01-20 21:51:00,28.6,20.0,30.26,NNW,335,4.0,5.0,70,0.00,,,0.00,weatherlink.com 1.10,2013-01-21 03:51:00,
2013-01-20 22:06:00,28.6,20.0,30.26,NW,312,6.0,8.0,69,0.00,,,0.00,weatherlink.com 1.10,2013-01-21 04:06:00,
2013-01-20 22:21:00,28.6,19.0,30.26,NNW,339,5.0,8.0,67,0.00,,,0.00,weatherlink.com 1.10,2013-01-21 04:21:00,
2013-01-20 22:36:00,28.6,19.0,30.26,North,354,2.0,7.0,68,0.00,,,0.00,weatherlink.com 1.10,2013-01-21 04:36:00,
2013-01-20 22:51:00,28.5,19.0,30.26,NNW,335,6.0,7.0,68,0.00,,,0.00,weatherlink.com 1.10,2013-01-21 04:51:00,
2013-01-20 23:06:00,28.2,19.0,30.26,NNW,346,4.0,6.0,69,0.00,,,0.00,weatherlink.com 1.10,2013-01-21 05:06:00,
2013-01-20 23:21:00,28.0,19.0,30.26,NNW,343,0.0,6.0,70,0.00,,,0.00,weatherlink.com 1.10,2013-01-21 05:21:00,
2013-01-20 23:36:00,27.6,20.0,30.27,NNW,329,4.0,5.0,72,0.00,,,0.00,weatherlink.com 1.10,2013-01-21 05:36:00,
2013-01-20 23:51:00,27.3,19.0,30.26,NNW,332,2.0,5.0,72,0.00,,,0.00,weatherlink.com 1.10,2013-01-21 05:51:00,